Location: Dead Woman Crossing
(43.5369°N, 106.3228°W)
Time: 07:04:29
(UTC+00:00)

COSMOS 2251 DEB - Pass Details

Date: 05 December 2022
Orbit: 765 x 800 km, 74.0° (Epoch: 27 January)

Event Time Altitude Azimuth Distance (km) Brightness Sun altitude
Rises 02:35:53 0° 321° (NW) 3,249 ? -33.1°
Reaches altitude 10° 02:39:15 10° 299° (WNW) 2,312 ? -33.7°
Maximum altitude 02:42:06 15° 266° (W) 1,983 ? -34.2°
Drops below altitude 10° 02:44:56 10° 232° (SW) 2,298 ? -34.7°
Sets 02:48:18 0° 210° (SSW) 3,218 ? -35.3°
